Wind_Speed
29 29 31 32 32 35 37 37 38 35 34 32 32 31 31 33 35 36 36 36 36 33 28 23 20 19 20 22 22 23 24 26 26 25 26 27 27 28 28 28 29 29 29 28
27 27 30 30 30 34 37 37 37 37 34 33 31 30 30 30 32 34 33 31 30 27 22 17 16 15 15 17 17 18 20 22 23 25 25 26 26 26 27 29 29 29 28 28
25 26 28 27 27 31 33 34 35 35 33 32 30 29 29 28 29 31 30 27 25 23 20 16 13 12 13 14 15 17 18 20 22 24 25 25 26 26 27 28 28 28 28 28
27 27 27 26 28 31 33 32 31 33 33 32 30 28 28 26 27 27 26 23 21 19 17 15 12 11 11 13 14 15 16 18 20 22 23 24 25 27 28 28 28 27 27 27
30 31 28 23 27 32 33 29 28 33 33 32 31 29 28 26 24 24 23 21 18 17 15 13 11 9 9 9 11 13 14 17 19 20 22 24 25 26 26 25 24 23 22 22
31 32 30 28 28 30 31 28 28 32 33 33 33 31 28 25 22 21 20 18 15 14 13 12 11 9 8 9 10 11 13 15 18 20 21 21 21 19 18 17 16 16 16 16
31 32 31 31 30 30 31 31 30 30 30 32 34 33 31 26 21 19 18 16 14 12 11 10 8 8 8 8 9 11 12 14 15 16 16 16 15 15 14 13 12 13 13 14
33 33 32 32 32 33 33 32 31 30 30 30 29 31 31 27 22 18 16 15 13 11 10 8 7 6 6 7 7 8 9 9 9 8 7 7 8 9 9 9 10 10 11 12
36 35 35 35 35 35 35 34 32 31 30 29 28 28 30 28 23 19 17 15 13 12 10 9 8 7 7 7 8 8 8 7 6 4 3 4 5 7 7 8 9 10 11 13
35 35 36 37 37 36 36 36 34 32 31 29 28 27 29 29 26 22 20 18 16 15 14 13 12 11 10 10 9 9 9 8 6 5 5 5 6 7 8 9 11 12 13 13
38 36 36 36 37 38 38 37 35 34 32 30 29 27 28 29 28 25 23 21 20 18 17 16 15 14 13 12 11 11 10 9 9 8 8 8 9 10 11 12 13 13 13 13
41 39 37 36 37 38 38 37 35 34 32 30 29 28 28 29 29 27 26 24 23 22 20 18 17 16 16 15 13 12 12 12 12 12 12 12 13 13 14 14 14 14 14 15
45 44 42 39 38 39 39 37 36 34 32 30 29 28 28 29 30 29 28 27 27 26 24 22 20 19 18 17 16 15 14 14 14 15 15 15 16 16 16 16 16 16 15 16
48 47 45 41 39 39 40 39 37 35 33 30 28 27 26 27 29 28 28 28 29 29 29 28 26 24 22 21 19 18 17 17 17 17 17 17 17 17 17 17 17 16 16 16
50 48 47 45 41 39 40 41 39 37 34 31 29 26 24 24 24 24 25 26 27 29 30 30 30 28 26 25 23 22 21 20 19 18 18 18 18 18 18 17 17 16 16 15
53 51 49 47 45 41 40 41 40 38 37 33 31 30 28 26 26 26 25 24 25 28 29 30 30 29 28 27 26 24 23 22 21 20 19 19 19 19 18 18 17 16 15 14
55 56 55 50 46 43 41 41 42 40 38 36 33 33 32 31 29 28 27 26 25 25 27 28 28 27 26 25 24 23 23 22 22 21 20 20 20 20 19 18 17 16 15 14
57 56 55 54 52 47 43 41 42 41 40 38 37 36 35 34 32 31 30 29 27 24 24 24 24 23 22 21 19 19 19 20 21 22 21 21 20 20 19 18 17 17 16 16
58 57 55 55 55 54 50 45 44 42 40 39 37 36 37 36 36 35 35 34 29 26 24 24 22 20 19 17 16 15 15 16 18 19 20 21 20 20 19 18 17 17 16 16
63 63 63 63 62 62 60 56 52 49 44 39 36 33 35 35 35 36 36 36 32 28 28 28 25 22 20 18 16 14 13 13 13 15 17 19 19 19 19 18 17 17 17 17
69 70 70 71 71 70 69 66 62 57 53 50 44 38 36 35 36 38 38 36 33 32 32 32 29 25 23 21 19 17 15 13 12 12 14 16 18 18 18 18 17 17 17 18
73 74 74 74 76 77 77 76 72 67 62 59 52 46 41 37 37 40 41 38 35 35 35 35 33 30 27 26 24 22 20 17 15 14 14 15 17 18 18 18 18 17 18 18
65 65 64 64 66 68 70 73 74 73 70 64 58 53 48 42 39 40 41 42 40 39 38 36 34 32 31 31 29 27 25 23 20 19 18 17 17 18 18 18 18 18 19 19
55 51 49 48 49 50 52 55 59 62 64 62 57 53 50 46 42 39 39 42 42 41 39 36 35 34 34 34 33 31 29 28 26 24 23 22 20 19 19 19 19 20 20 20
40 38 36 36 35 34 35 38 41 44 46 47 47 46 46 45 43 41 40 40 39 39 39 38 36 36 37 37 36 34 33 31 30 28 27 25 23 23 23 23 22 21 21 20
33 33 34 33 32 29 26 24 23 24 26 28 31 34 38 40 41 39 37 37 36 36 38 39 38 38 39 39 39 37 35 34 33 31 29 27 25 25 25 25 23 21 19 18
30 32 33 32 30 29 26 22 17 13 15 18 20 25 29 33 34 34 33 32 32 34 36 38 39 39 39 40 40 38 37 35 33 32 30 27 26 26 26 25 23 21 20 19
Wind_Direction
297 295 291 289 291 289 286 285 285 287 289 292 293 300 308 316 321 321 320 319 320 319 313 291 265 253 238 235 228 226 227 232 234 239 244 250 255 261 264 265 267 269 271 273
302 300 296 299 298 292 286 282 282 282 285 286 291 298 307 316 321 322 322 320 322 323 320 302 275 259 248 239 236 232 233 238 241 245 249 253 257 261 264 267 269 271 272 272
309 307 305 313 306 296 292 288 284 282 282 282 286 294 303 312 319 323 323 320 322 323 323 316 292 268 252 247 244 241 244 247 249 252 255 257 260 263 266 269 272 274 274 273
312 310 312 318 310 304 298 296 290 282 279 281 284 289 297 306 315 321 322 318 319 321 321 317 303 281 262 253 247 246 250 254 257 258 260 262 264 267 270 272 273 273 273 275
313 313 317 323 314 307 306 304 292 283 280 280 281 284 290 298 307 316 321 318 314 315 317 315 310 297 279 264 257 256 258 261 262 264 265 266 267 268 269 271 273 276 276 275
315 317 322 324 314 312 311 312 294 287 284 280 278 279 281 288 296 306 315 319 316 311 308 308 306 301 291 281 275 273 272 272 271 270 270 270 269 268 269 272 275 275 276 277
311 315 321 319 317 315 313 312 306 299 291 285 276 276 275 276 282 292 303 312 316 314 309 307 309 309 305 299 294 290 287 284 281 277 273 269 265 263 264 264 266 270 273 278
311 315 316 314 314 313 312 310 309 305 296 291 284 275 270 268 269 275 285 295 304 309 310 311 313 318 319 319 318 314 308 303 298 289 276 260 253 252 253 256 261 267 275 283
312 314 311 310 309 310 309 309 308 306 302 293 288 278 268 261 259 261 268 276 284 292 295 298 302 305 310 315 320 322 320 316 311 297 266 241 238 242 247 254 263 272 281 288
308 307 305 305 305 305 304 305 306 306 304 298 292 279 266 259 254 254 258 264 270 276 280 282 286 289 291 297 306 313 317 316 308 290 266 252 250 253 259 266 273 278 283 287
314 311 307 305 304 303 303 303 303 303 302 299 294 282 267 258 253 251 253 258 263 269 273 276 279 282 285 289 295 300 304 303 297 286 274 267 265 266 270 274 276 279 284 290
313 311 308 305 301 300 300 301 301 300 299 296 293 285 268 256 251 250 251 254 259 264 267 270 273 276 280 285 290 294 296 294 290 285 280 276 274 275 276 278 281 285 291 295
307 308 307 304 298 295 296 296 297 297 296 293 287 283 271 256 250 249 251 254 256 259 261 264 266 269 273 278 281 284 287 288 286 283 279 277 277 278 280 283 286 291 294 295
303 305 304 302 298 294 293 294 293 292 292 289 281 276 269 258 251 250 252 255 257 256 257 259 262 264 266 270 273 275 277 281 282 281 278 277 277 278 281 284 288 291 294 295
301 302 303 302 299 293 290 290 289 287 285 283 275 269 263 255 250 250 255 259 258 256 255 256 258 260 262 265 267 267 269 272 276 277 275 273 274 275 278 282 286 289 290 291
297 299 299 297 295 290 286 285 285 283 280 276 268 261 256 254 250 251 256 260 260 256 253 253 254 257 261 263 263 262 262 266 270 273 271 268 267 269 272 277 281 283 285 287
295 294 294 293 290 285 281 279 279 278 275 270 263 257 253 252 253 253 254 257 261 260 253 250 252 255 259 261 260 258 258 262 265 266 266 263 261 262 266 271 275 280 283 287
294 293 291 289 288 285 279 274 274 274 272 268 261 255 252 250 251 251 251 254 256 257 253 249 250 253 256 257 257 257 258 261 262 262 263 261 258 258 261 266 270 275 280 284
293 291 287 283 282 282 280 274 270 270 268 261 255 250 249 248 247 247 247 248 249 249 250 250 250 251 254 255 255 257 261 263 264 262 260 259 256 256 259 264 267 269 272 277
290 288 286 283 281 280 280 277 272 267 263 260 253 247 246 246 244 243 245 246 244 243 246 249 250 250 252 254 254 257 261 265 268 267 263 259 256 256 257 260 262 265 268 272
284 283 281 280 279 277 277 276 273 269 264 262 259 253 248 244 240 240 241 242 241 240 242 245 247 248 251 253 254 256 259 264 271 272 267 261 258 257 256 257 258 261 266 270
287 286 283 280 278 275 273 272 271 269 266 264 262 258 254 248 242 240 238 235 233 236 239 243 246 248 250 253 255 257 259 263 268 272 271 266 261 259 258 257 258 260 265 270
299 296 292 287 283 279 274 272 271 270 268 265 261 259 256 252 247 241 236 232 229 231 234 238 242 245 247 251 254 255 257 260 264 268 269 269 265 261 260 261 260 262 265 271
309 308 305 300 293 286 280 273 270 269 269 266 262 258 256 252 248 243 238 232 229 228 230 234 237 240 244 248 252 253 255 257 260 264 266 266 264 260 261 263 264 265 268 273
321 322 322 321 315 305 292 280 272 268 265 263 260 256 252 248 246 244 240 234 230 231 232 233 236 238 241 245 248 250 252 254 256 260 263 265 262 259 259 263 266 267 269 273
327 330 332 334 332 328 319 303 286 269 258 252 250 249 247 245 243 243 243 238 233 233 234 236 237 239 240 243 246 247 249 250 252 255 259 261 260 258 259 260 262 264 268 272
332 333 334 334 332 328 324 316 304 274 240 227 227 233 236 238 238 239 239 238 237 236 237 238 240 241 242 244 245 245 246 247 248 250 253 255 255 254 255 257 260 263 266 269
Height
5802 5799 5795 5793 5792 5788 5784 5782 5779 5777 5775 5773 5769 5766 5763 5759 5753 5746 5739 5732 5724 5717 5710 5705 5703 5702 5704 5707 5710 5712 5715 5719 5721 5724 5727 5729 5731 5733 5734 5734 5735 5735 5735 5735
5794 5792 5787 5785 5784 5778 5774 5771 5769 5767 5766 5763 5760 5758 5755 5752 5747 5740 5733 5726 5720 5713 5708 5704 5702 5701 5702 5704 5706 5708 5711 5713 5716 5719 5721 5723 5724 5725 5726 5726 5727 5727 5726 5726
5788 5784 5780 5778 5775 5769 5764 5761 5760 5757 5757 5754 5753 5751 5748 5746 5741 5735 5729 5722 5717 5712 5707 5703 5701 5700 5701 5702 5704 5705 5707 5709 5711 5713 5715 5716 5717 5718 5718 5718 5718 5718 5718 5718
5782 5779 5775 5775 5766 5761 5756 5755 5752 5749 5747 5746 5745 5744 5742 5740 5736 5731 5725 5719 5714 5710 5706 5703 5701 5699 5699 5700 5701 5702 5703 5705 5706 5707 5709 5710 5710 5711 5711 5711 5711 5710 5710 5710
5776 5772 5770 5769 5762 5755 5750 5749 5746 5740 5739 5738 5737 5736 5735 5733 5731 5727 5722 5716 5712 5708 5705 5703 5700 5699 5698 5698 5699 5699 5700 5700 5701 5702 5702 5703 5703 5703 5703 5703 5703 5703 5703 5703
5770 5765 5762 5763 5757 5750 5746 5743 5740 5734 5732 5731 5729 5729 5728 5727 5725 5722 5718 5714 5709 5706 5703 5701 5699 5698 5697 5696 5696 5696 5696 5696 5696 5696 5696 5696 5696 5696 5696 5697 5698 5698 5698 5698
5764 5759 5757 5754 5749 5745 5742 5739 5733 5729 5726 5723 5721 5720 5720 5719 5719 5717 5714 5711 5707 5704 5701 5699 5697 5696 5695 5694 5694 5693 5692 5692 5691 5690 5690 5690 5690 5690 5691 5692 5693 5694 5694 5694
5758 5754 5752 5746 5741 5738 5734 5730 5726 5722 5718 5715 5713 5711 5710 5711 5711 5711 5709 5707 5704 5702 5699 5697 5695 5694 5693 5692 5692 5691 5690 5688 5687 5686 5686 5686 5686 5687 5688 5689 5690 5690 5690 5690
5752 5750 5744 5738 5732 5728 5724 5721 5718 5714 5711 5708 5705 5703 5702 5702 5703 5703 5703 5702 5701 5699 5697 5696 5694 5693 5692 5691 5690 5689 5688 5687 5685 5684 5684 5684 5684 5685 5685 5686 5686 5687 5687 5686
5744 5741 5736 5730 5725 5720 5715 5710 5708 5705 5702 5699 5697 5694 5693 5693 5694 5695 5696 5696 5696 5695 5694 5693 5692 5691 5690 5689 5688 5688 5687 5685 5684 5683 5683 5683 5683 5683 5683 5683 5683 5683 5683 5682
5736 5732 5728 5723 5717 5711 5706 5702 5698 5695 5693 5690 5688 5686 5685 5684 5685 5687 5688 5689 5689 5689 5688 5688 5687 5687 5686 5686 5685 5685 5684 5683 5683 5682 5681 5681 5681 5681 5681 5681 5680 5679 5679 5678
5726 5722 5717 5713 5709 5703 5698 5694 5690 5686 5684 5682 5679 5677 5676 5675 5676 5678 5679 5681 5681 5681 5681 5681 5681 5682 5681 5681 5681 5680 5680 5680 5679 5679 5678 5678 5678 5678 5677 5677 5676 5676 5675 5673
5715 5711 5706 5702 5698 5693 5689 5685 5681 5678 5675 5672 5671 5668 5667 5666 5667 5669 5671 5672 5673 5673 5674 5674 5675 5675 5676 5676 5676 5676 5675 5675 5675 5674 5674 5673 5673 5673 5673 5673 5672 5671 5670 5669
5704 5700 5695 5691 5687 5683 5679 5675 5672 5669 5666 5663 5661 5660 5658 5658 5658 5660 5662 5663 5664 5665 5665 5666 5667 5668 5669 5669 5669 5669 5670 5669 5669 5669 5668 5668 5667 5667 5667 5667 5667 5666 5665 5664
5692 5686 5682 5678 5674 5671 5668 5664 5661 5659 5656 5654 5653 5652 5651 5650 5651 5652 5653 5654 5655 5655 5656 5657 5658 5659 5660 5661 5661 5662 5663 5663 5663 5662 5662 5662 5661 5661 5661 5661 5661 5661 5661 5660
5680 5674 5669 5665 5661 5657 5655 5652 5649 5647 5645 5644 5643 5643 5643 5643 5643 5644 5644 5645 5646 5646 5647 5648 5649 5651 5652 5652 5653 5654 5654 5655 5655 5655 5655 5655 5655 5655 5655 5655 5655 5655 5655 5654
5665 5660 5655 5650 5646 5643 5640 5637 5635 5633 5631 5631 5631 5632 5633 5633 5634 5635 5635 5636 5637 5637 5638 5639 5640 5642 5643 5643 5644 5645 5646 5646 5647 5647 5647 5648 5648 5648 5649 5649 5648 5648 5648 5648
5645 5640 5635 5631 5628 5625 5624 5622 5620 5619 5617 5616 5617 5619 5620 5621 5623 5625 5626 5626 5628 5629 5630 5631 5632 5633 5634 5635 5635 5636 5637 5638 5638 5638 5639 5640 5640 5641 5642 5642 5642 5642 5641 5641
5626 5621 5616 5613 5610 5607 5605 5605 5604 5603 5602 5601 5601 5602 5605 5607 5609 5612 5613 5615 5617 5620 5621 5622 5624 5625 5626 5627 5628 5628 5629 5630 5630 5630 5631 5632 5632 5633 5634 5635 5635 5635 5635 5635
5605 5600 5596 5592 5590 5586 5584 5585 5585 5585 5585 5585 5585 5586 5589 5592 5595 5598 5601 5604 5608 5611 5612 5612 5615 5617 5618 5619 5621 5622 5622 5623 5623 5623 5623 5624 5625 5626 5627 5628 5628 5629 5629 5629
5583 5577 5572 5568 5565 5562 5560 5560 5562 5564 5565 5567 5569 5571 5574 5577 5581 5585 5589 5593 5598 5600 5601 5602 5604 5607 5610 5612 5614 5615 5616 5616 5616 5616 5617 5617 5618 5619 5620 5621 5622 5622 5623 5623
5559 5551 5545 5540 5535 5534 5533 5532 5534 5538 5542 5546 5550 5554 5558 5562 5565 5570 5575 5581 5585 5587 5589 5592 5595 5598 5601 5603 5605 5607 5609 5610 5610 5610 5610 5611 5612 5612 5613 5614 5615 5616 5616 5616
5532 5525 5517 5511 5506 5504 5504 5505 5505 5508 5515 5523 5530 5536 5541 5546 5550 5555 5561 5566 5570 5574 5578 5582 5586 5589 5591 5592 5595 5598 5600 5602 5603 5604 5604 5604 5605 5606 5607 5608 5608 5609 5610 5610
5511 5502 5495 5489 5484 5481 5479 5480 5481 5484 5489 5498 5509 5518 5524 5530 5536 5541 5546 5551 5556 5561 5566 5571 5574 5578 5580 5582 5585 5588 5591 5593 5595 5597 5597 5598 5598 5599 5600 5601 5602 5602 5602 5602
5500 5492 5484 5477 5471 5466 5463 5462 5463 5466 5471 5479 5489 5499 5507 5515 5521 5527 5532 5538 5543 5549 5554 5559 5562 5566 5569 5572 5575 5578 5581 5584 5587 5588 5589 5590 5591 5592 5593 5594 5595 5595 5595 5595
5494 5486 5479 5472 5465 5460 5455 5452 5451 5453 5457 5464 5474 5484 5492 5501 5508 5514 5520 5525 5530 5535 5541 5545 5550 5553 5557 5560 5564 5567 5571 5574 5577 5579 5581 5582 5584 5585 5586 5587 5587 5588 5588 5588
5491 5483 5476 5470 5464 5458 5452 5449 5446 5446 5448 5454 5462 5472 5481 5489 5496 5503 5508 5513 5518 5523 5528 5532 5537 5541 5544 5548 5552 5556 5560 5564 5567 5570 5572 5574 5576 5578 5579 5580 5580 5581 5582 5582